Location: *
(47.8307°S, 178.3954°E)
Time: 07:41:00
(UTC+00:00)

Lacrosse 5 rocket - Pass Details

Date: 12 August 2024
Orbit: 432 x 567 km, 57.0° (Epoch: 18 September)

Event Time Altitude Azimuth Distance (km) Brightness Sun altitude
Exits shadow 17:52:49 19° 234° (SW) 1,354 2.8 -13.9°
Maximum altitude 17:54:41 26° 194° (SSW) 1,101 2.6 -13.6°
Drops below altitude 10° 17:58:10 10° 136° (SE) 1,799 4.5 -13.0°
Sets 18:00:36 0° 122° (ESE) 2,661 5.7 -12.6°
